This is the latest recevied weather packets stored in our database for station/object 4S6DRJ-13. If no packets are shown the sender has not sent any weather packets the latest 1 day(s).
| Time | Temp. | Humidity | Pressure | Rain* | Wind** | Luminosity | Snow |
|---|---|---|---|---|---|---|---|
| 1778088564 | 26.11° C | 91% | 1006 hPa | 0 mm | 0.45 m/s, 47° | 0 W/m² | - |
| 1778088137 | 26.11° C | 91% | 1006.2 hPa | 0 mm | 0.45 m/s, 55° | 0 W/m² | - |
| 1778088015 | 26.11° C | 91% | 1006.1 hPa | 0 mm | 0.89 m/s, 349° | 0 W/m² | - |
| 1778087954 | 26.11° C | 91% | 1006.1 hPa | 0 mm | 1.34 m/s, 65° | 0 W/m² | - |
| 1778087832 | 26.11° C | 91% | 1006.2 hPa | 0 mm | 0.45 m/s, 70° | 0 W/m² | - |
| 1778087649 | 26.11° C | 91% | 1006.3 hPa | 0 mm | 0 m/s | 0 W/m² | - |
| 1778087527 | 26.11° C | 90% | 1006.3 hPa | 0 mm | 1.34 m/s, 65° | 0 W/m² | - |
| 1778087283 | 26.11° C | 90% | 1006.4 hPa | 0 mm | 0.45 m/s, 26° | 0 W/m² | - |
| 1778087222 | 26.11° C | 90% | 1006.4 hPa | 0 mm | 0 m/s | 0 W/m² | - |
| 1778087100 | 26.11° C | 90% | 1006.6 hPa | 0 mm | 0.45 m/s, 109° | 0 W/m² | - |
| 1778087039 | 26.11° C | 90% | 1006.5 hPa | 0 mm | 0 m/s | 0 W/m² | - |
| 1778086917 | 26.11° C | 90% | 1006.4 hPa | 0 mm | 0 m/s | 0 W/m² | - |
| 1778086734 | 26.67° C | 89% | 1006.3 hPa | 0 mm | 0 m/s | 0 W/m² | - |
| 1778086612 | 26.67° C | 89% | 1006.5 hPa | 0 mm | 0.45 m/s, 24° | 0 W/m² | - |
| 1778086490 | 26.67° C | 89% | 1006.4 hPa | 0.51 mm | 0.45 m/s, 333° | 0 W/m² | - |
| 1778086429 | 26.67° C | 89% | 1006.3 hPa | 0.51 mm | 0.45 m/s, 340° | 0 W/m² | - |
| 1778086368 | 26.67° C | 89% | 1006.5 hPa | 0.51 mm | 0.89 m/s, 32° | 0 W/m² | - |
| 1778086246 | 26.11° C | 89% | 1006.1 hPa | 0.51 mm | 0.89 m/s, 70° | 0 W/m² | - |
| 1778086185 | 26.11° C | 89% | 1006.2 hPa | 0.76 mm | 0.45 m/s, 77° | 0 W/m² | - |
| 1778086124 | 26.11° C | 89% | 1006.3 hPa | 0.76 mm | 1.34 m/s, 96° | 0 W/m² | - |
| 1778086002 | 26.11° C | 89% | 1006.2 hPa | 0.76 mm | 0.45 m/s, 74° | 0 W/m² | - |
| 1778085941 | 26.11° C | 89% | 1006.2 hPa | 0.76 mm | 1.34 m/s, 76° | 0 W/m² | - |
| 1778085880 | 26.11° C | 89% | 1006.2 hPa | 2.29 mm | 0.45 m/s, 31° | 0 W/m² | - |
| 1778085697 | 26.11° C | 89% | 1006.3 hPa | 2.29 mm | 0.89 m/s, 78° | 0 W/m² | - |
| 1778085575 | 26.11° C | 90% | 1006.4 hPa | 6.6 mm | 0.45 m/s, 63° | 0 W/m² | - |
* Rain latest hour (hover to see other rain measurements)
** Current wind speed in m/s (hover to see current wind gust speed)